"Pseudo-MPEC" for P10Ufed

Created 2019 Nov 13 9:07:13 UT using Find_Orb

Click here for an explanation of pseudo-MPECs

 
 Astrometry: 
     P10Ufed  C2019 11 07L)-GkX#/oTst9b`2?!v^-die.xC6gIsupSMM'!vtc\-\7#2u0wdOF51
     P10Ufed  C2019 11 07_DM]4n`-CWKv^AstrometrySR@T):q?redacted;!.WX@RBqqq1;F51
     P10Ufed  C2019 11 07xH*m.7je=A$JsDX8Ov:7SrX+oOVf:L?bVfqGV6w:hK^F'wPclickF51
     P10Ufed  C2019 11 07#kAVcyX)LyCxr`.^WV:mtl.c=FcxCm452Rh(dKU=I-5/MfrBYl4gF51
     P10Ufed  C2019 11 10/+4M)1t_/r,Rp#/hL=W[Y+GQM[w;aFjh)biL;b$;2'%.BXi!ck,jF51
     P10Ufed  C2019 11 10L]+(D+sf4uOWQ!r9YhK:mHi^lj!7PE=3PE2here5x#9M[D(-7aOcF51
     P10Ufed  C2019 11 10BCJ1[pU\-+[Jsep+4]#(18LmFUu'Wr$[]_,9u9xVKforAhVA:x^%F51
     P10Ufed  C2019 11 107er])'2d8*hNhMZ[M3XE_S3oNjcLNhcexplanationm;Pv3:5q\=F51

Station data:
(F51) Pan-STARRS 1, Haleakala  (N20.707235 W156.255910)  US/Hawaii.
   Observers N. Primak, A. Schultz, S. Watters, J. Thiel, T. Goggia. Measurer
   PS1 Science Consortium. 1.8-m Ritchey-Chrétien + CCD.

Orbital elements:  P10Ufed
   Perihelion 2018 Jun 3.943903 +/- 318 TT = 22:39:13 (JD 2458273.443903)
Epoch 2019 Nov 10.0 TT = JDT 2458797.5   Earth MOID: 0.6952   AutoNEOCP
M 130.95031301 +/- 110              (J2000 ecliptic)
n   0.24987842 +/- 0.26             Peri.  301.10753 +/- 70
a   2.49641552 +/- 1.73             Node    19.21807 +/- 43
e   0.3441745 +/- 0.224             Incl.   17.26976 +/- 22
P   3.94                   H 15.8   G  0.15   U 11.9  SR
q 1.63721292 +/- 1.42    Q 3.35561811 +/- 35.1
From 8 observations 2019 Nov. 7-10; mean residual 0".16
Residuals in arcseconds: 
191107 F51  .16+  .10+    191107 F51  .41-  .15+    191110 F51  .05-  .01-    
191107 F51  .11+  .14-    191110 F51  .03-  .25+    191110 F51  .15+  .03-    
191107 F51  .14+  .10-    191110 F51  .06-  .21-    

Ephemerides (geocentric):
Date (UTC) HH   RA              Dec         delta   r     elong  mag " sig PA
---- -- -- --  -------------   -----------  ------ ------ -----  --- ---- ---
2019 11 13 09  09 29 29.568   +34 42 56.74  2.9185 3.1872  96.6 21.6 54.5  20
2019 11 13 10  09 29 30.980   +34 43 04.59  2.9180 3.1873  96.6 21.6 55.7  20
2019 11 13 11  09 29 32.389   +34 43 12.46  2.9175 3.1874  96.6 21.6 56.9  20
2019 11 13 12  09 29 33.796   +34 43 20.34  2.9170 3.1874  96.7 21.6 58.2  20
2019 11 13 13  09 29 35.200   +34 43 28.23  2.9165 3.1875  96.7 21.6 59.5  20
2019 11 13 14  09 29 36.603   +34 43 36.14  2.9160 3.1876  96.8 21.6 60.7  20
2019 11 13 15  09 29 38.003   +34 43 44.05  2.9155 3.1877  96.8 21.6 62.0  20
2019 11 13 16  09 29 39.401   +34 43 51.98  2.9150 3.1877  96.8 21.6 63.3  20
2019 11 13 17  09 29 40.797   +34 43 59.92  2.9145 3.1878  96.9 21.6 64.7  20
2019 11 13 18  09 29 42.191   +34 44 07.88  2.9140 3.1879  96.9 21.6 66.0  20
2019 11 13 19  09 29 43.582   +34 44 15.84  2.9134 3.1880  96.9 21.6 67.3  20
2019 11 13 20  09 29 44.972   +34 44 23.82  2.9129 3.1880  97.0 21.6 68.7  20
2019 11 13 21  09 29 46.359   +34 44 31.81  2.9124 3.1881  97.0 21.6 70.0  20
2019 11 13 22  09 29 47.744   +34 44 39.81  2.9119 3.1882  97.0 21.6 71.4  20
2019 11 13 23  09 29 49.127   +34 44 47.83  2.9114 3.1882  97.1 21.6 72.8  20
2019 11 14 00  09 29 50.507   +34 44 55.86  2.9109 3.1883  97.1 21.6 74.2  20
2019 11 14 01  09 29 51.885   +34 45 03.89  2.9104 3.1884  97.1 21.6 75.6  20
2019 11 14 02  09 29 53.262   +34 45 11.95  2.9099 3.1885  97.2 21.6 77.1  20
2019 11 14 03  09 29 54.635   +34 45 20.01  2.9094 3.1885  97.2 21.6 78.5  20
2019 11 14 04  09 29 56.007   +34 45 28.09  2.9089 3.1886  97.3 21.6 80.0  20
2019 11 14 05  09 29 57.377   +34 45 36.17  2.9084 3.1887  97.3 21.6 81.4  20
2019 11 14 06  09 29 58.744   +34 45 44.27  2.9079 3.1888  97.3 21.6 82.9  20
2019 11 14 07  09 30 00.109   +34 45 52.39  2.9074 3.1888  97.4 21.6 84.4  20
2019 11 14 08  09 30 01.472   +34 46 00.51  2.9068 3.1889  97.4 21.6 85.9  20
2019 11 14 09  09 30 02.832   +34 46 08.65  2.9063 3.1890  97.4 21.6 87.4  20
2019 11 14 10  09 30 04.191   +34 46 16.80  2.9058 3.1890  97.5 21.6 89.0  20
2019 11 14 11  09 30 05.547   +34 46 24.96  2.9053 3.1891  97.5 21.6 90.5  20
2019 11 14 12  09 30 06.901   +34 46 33.14  2.9048 3.1892  97.5 21.6 92.1  20
2019 11 14 13  09 30 08.253   +34 46 41.32  2.9043 3.1893  97.6 21.6 93.6  20
2019 11 14 14  09 30 09.602   +34 46 49.52  2.9038 3.1893  97.6 21.6 95.2  20
2019 11 14 15  09 30 10.949   +34 46 57.73  2.9033 3.1894  97.6 21.6 96.8  20
2019 11 14 16  09 30 12.295   +34 47 05.96  2.9028 3.1895  97.7 21.6 98.4  20
2019 11 14 17  09 30 13.637   +34 47 14.19  2.9023 3.1895  97.7 21.6  100  20
2019 11 14 18  09 30 14.978   +34 47 22.44  2.9018 3.1896  97.8 21.6  102  20
2019 11 14 19  09 30 16.316   +34 47 30.70  2.9013 3.1897  97.8 21.6  103  20
2019 11 14 20  09 30 17.652   +34 47 38.98  2.9008 3.1898  97.8 21.6  105  20
2019 11 14 21  09 30 18.986   +34 47 47.26  2.9003 3.1898  97.9 21.6  107  20
2019 11 14 22  09 30 20.318   +34 47 55.56  2.8997 3.1899  97.9 21.6  108  20
2019 11 14 23  09 30 21.648   +34 48 03.87  2.8992 3.1900  97.9 21.6  110  20
2019 11 15 00  09 30 22.975   +34 48 12.19  2.8987 3.1901  98.0 21.6  112  20
2019 11 15 01  09 30 24.300   +34 48 20.53  2.8982 3.1901  98.0 21.6  113  20
2019 11 15 02  09 30 25.622   +34 48 28.87  2.8977 3.1902  98.0 21.6  115  20
2019 11 15 03  09 30 26.943   +34 48 37.23  2.8972 3.1903  98.1 21.6  117  20
2019 11 15 04  09 30 28.261   +34 48 45.61  2.8967 3.1903  98.1 21.6  119  20
2019 11 15 05  09 30 29.577   +34 48 53.99  2.8962 3.1904  98.1 21.6  121  20
2019 11 15 06  09 30 30.891   +34 49 02.39  2.8957 3.1905  98.2 21.6  122  20
2019 11 15 07  09 30 32.202   +34 49 10.80  2.8952 3.1906  98.2 21.6  124  20
2019 11 15 08  09 30 33.512   +34 49 19.22  2.8947 3.1906  98.3 21.6  126  20